Regional Weather Roundup
Issued by NWS

Home | Current Version | Previous Version | Graphics & Text | Print | Product List | Glossary On
Versions: 1 2 3 4 5 6 7 8 9 10 11 12 13 14 15 16 17 18 19 20 21 22 23 24 25 26 27 28 29 30 31 32 33 34 35 36 37 38 39 40 41 42 43 44 45 46 47 48 49 50
000
ASUS43 KMPX 030510
RWRMN
WEATHER ROUNDUP FOR MINNESOTA
NATIONAL WEATHER SERVICE TWIN CITIES/CHANHASSEN MN
1200 AM CDT SUN MAY 03 2015


NOTE: "FAIR" INDICATES FEW OR NO CLOUDS BELOW 12,000 FEET WITH NO
SIGNIFICANT WEATHER AND/OR OBSTRUCTIONS TO VISIBILITY. N/A MEANS
CURRENT SKY AND/OR WEATHER CONDITIONS ARE NOT AVAILABLE.

MNZ060>063-068>070-030600-
   Twin Cities Metro

CITY           SKY/WX    TMP DP  RH WIND       PRES   REMARKS
TWIN CITIES    PTCLDY    68  52  56 S12G22    29.78R
ST PAUL        CLEAR     67  51  56 S7        29.79R
CRYSTAL        CLEAR     69  51  52 S14       29.76R
BLAINE         CLEAR     70  52  52 S13G18    29.77R
LAKEVILLE      CLEAR     63  52  67 S8        29.80R
EDEN PRAIRIE   CLEAR     66  52  60 S17G25    29.77R
SOUTH ST PAUL  CLEAR     67  50  53 S14       29.79R
LAKE ELMO      FAIR      64  50  59 S10       29.80R
$$
MNZ001>005-007-008-013>017-022>024-027-028-030600-
   Northwest Minnesota

CITY           SKY/WX    TMP DP  RH WIND       PRES   REMARKS
BEMIDJI        MOCLDY    57  43  59 SE5       29.63F
HALLOCK        CLEAR     57  39  51 CALM      29.60F
ROSEAU         PTCLDY    63  45  51 W3        29.62F
WARROAD        MOCLDY    64  46  52 W3        29.63R
THIEF RVR FALL PTCLDY    57  46  67 S7        29.61S
CROOKSTON      CLEAR     57  46  67 SW6       29.61R
DETROIT LAKES  PTCLDY    63  50  63 S14       29.66S
MOORHEAD       PTCLDY    61  52  72 S14       29.62S
PARK RAPIDS    MOCLDY    61  48  62 S13       29.64F
MAHNOMEN       FAIR      63  47  57 S15G23    29.61R
$$
MNZ006-009>011-018-025>026-030600-
   North Central Minnesota

CITY           SKY/WX    TMP DP  RH WIND       PRES   REMARKS
BAUDETTE       CLOUDY    62  43  49 S6        29.60F
FLAG ISLAND    LGT RAIN  61  48  63 CALM      29.59F
INTL FALLS     CLOUDY    65  35  33 S3        29.62S
WASKISH        CLOUDY    66  45  45 S8G16     29.61S
BIG FORK       LGT RAIN  64  46  52 CALM      29.68S
LONGVILLE      CLOUDY    66  41  39 S10G17    29.67F
GRAND RAPIDS   CLOUDY    63  39  42 S8        29.67F
CRANE LAKE     CLOUDY    63  34  34 S3        29.66F
ORR            CLOUDY    64  34  32 S2        29.64F
COOK           CLOUDY    64  39  39 S5        29.68S
WALKER         FAIR      65  43  44 S10G20    29.64F
$$
MNZ012-019>021-037-030600-
   Northeast Minnesota

CITY           SKY/WX    TMP DP  RH WIND       PRES   REMARKS
DULUTH         CLOUDY    54  43  66 SE8       29.72F
ELY            CLOUDY    61  39  44 S6        29.69F
HIBBING        CLOUDY    66  39  37 VRB6      29.67F
EVELETH        CLOUDY    63  37  39 S8        29.68F
DULUTH HARBOR  MOCLDY    45  41  87 N6        29.74F
TWO HARBORS    CLOUDY    52  45  76 CALM      29.71F
SILVER BAY     CLOUDY    46  41  81 CALM      29.71F
GRAND MARAIS     N/A     43  40  89 VRB3      29.73F
G MARAIS ARPRT PTCLDY    45  37  76 CALM      29.76F
$$
MNZ029>031-032-039>041-046>048-054>057-064-030600-
   West Central Minnesota

CITY           SKY/WX    TMP DP  RH WIND       PRES   REMARKS
FERGUS FALLS   LGT RAIN  61  54  77 SE8       29.65F
WHEATON        CLOUDY    61  50  67 E13       29.68S
MORRIS         MOCLDY    63  52  67 SE10      29.68F
ALEXANDRIA     MOCLDY    60  52  74 E7        29.72S
ELBOW LAKE     MOCLDY    63  52  66 SE15      29.67R
WADENA         MOCLDY    61  48  63 SE15G24   29.66F
GLENWOOD       PTCLDY    61  52  72 SE5       29.73R
APPLETON       PTCLDY    66  48  52 E7        29.68F
BENSON         PTCLDY    63  48  59 E8        29.71S
ORTONVILLE     MOCLDY    66  45  45 E6        29.67R
MADISON        PTCLDY    66  48  52 S10       29.67S
WILLMAR        FAIR      66  52  59 S7        29.73F
$$
MNZ033>034-036-042>043-049>051-058-059-030600-
   Central Minnesota

CITY           SKY/WX    TMP DP  RH WIND       PRES   REMARKS
ST CLOUD       MOCLDY    66  48  52 W9        29.76R
SAUK CENTRE    FAIR      60  50  69 CALM      29.73F
PAYNESVILLE    PTCLDY    61  47  60 N7        29.75F
AITKIN         CLOUDY    68  41  37 S6        29.69F
PINE RIVER     CLOUDY    66  45  45 S8        29.70F
BRAINERD       RAIN      63  49  60 VRB3G31   29.73F
STAPLES        CLOUDY    57  52  82 SE6       29.68F
LONG PRAIRIE   MOCLDY    61  50  67 CALM      29.72S
LITTLE FALLS   MOCLDY    64  45  48 N3        29.72F
LITCHFIELD     CLEAR     66  54  63 S3        29.75S
BUFFALO        PTCLDY    67  51  56 S12G17    29.76S
MAPLE LAKE     PTCLDY    68  54  60 S8        29.75S
$$
MNZ037-044-045-052-053-030600-
   East Central Minnesota

CITY           SKY/WX    TMP DP  RH WIND       PRES   REMARKS
PRINCETON      CLEAR     66  50  55 S9        29.74S
MORA           PTCLDY    63  43  48 S3        29.75S
CAMBRIDGE      CLEAR     66  50  55 S8        29.73S
RUSH CITY      MOCLDY    63  45  51 S7        29.75S
MOOSE LAKE     MOCLDY    54  43  66 NE3       29.72R
HINCKLEY       FAIR      54  45  71 S3        29.74S
CLOQUET        CLOUDY    52  43  71 CALM      29.73S
MCGREGOR       CLOUDY    64  43  45 S7        29.72F
$$
MNZ071>073-080-081-089-090-097-098-030600-
   Southwest Minnesota

CITY           SKY/WX    TMP DP  RH WIND       PRES   REMARKS
MONTEVIDEO     PTCLDY    66  52  59 S9        29.70S
GRANITE FALLS  CLEAR     65  51  61 SE13      29.71S
CANBY          PTCLDY    67  52  57 S16       29.68F
MARSHALL       CLEAR     64  50  59 S20       29.70S
REDWOOD FALLS  CLEAR     64  52  64 S17       29.71F
OLIVIA         CLEAR     64  50  59 S10       29.73R
PIPESTONE      CLEAR     63  52  67 S16       29.73F
WINDOM         CLEAR     63  54  72 S12G17    29.77F
WORTHINGTON    CLEAR     61  50  67 S17       29.76F
JACKSON        CLEAR     59  50  72 S12G20    29.79F
TRACY          CLEAR     65  54  68 S17G25    29.72F
SLAYTON        CLEAR     60  53  77 SE13      29.75F
$$
MNZ065>067-074>077-082>085-091>093-030600-
   South Central Minnesota

CITY           SKY/WX    TMP DP  RH WIND       PRES   REMARKS
MANKATO        CLEAR     63  46  55 S14G21    29.79F
NEW ULM        CLEAR     63  52  67 S16       29.76F
ST JAMES       CLEAR     63  52  67 S15       29.79S
FAIRMONT       CLEAR     59  46  63 S17       29.79F
GLENCOE        CLEAR     66  55  69 S13G20    29.76S
FARIBAULT      CLEAR     63  52  67 S8        29.82S
OWATONNA       CLEAR     61  50  67 S13       29.83S
WASECA         CLEAR     59  50  72 S12G17    29.83S
ALBERT LEA     CLEAR     61  50  67 S10G17    29.83F
$$
MNZ078>079-086>088-094>096-030600-
   Southeast Minnesota

CITY           SKY/WX    TMP DP  RH WIND       PRES   REMARKS
ROCHESTER      CLEAR     59  49  69 S13       29.87R
RED WING       CLEAR     66  48  52 SW8       29.81R
STANTON        CLEAR     64  50  61 S10G16    29.79F
DODGE CENTER   CLEAR     61  50  67 S12       29.84F
WINONA         CLEAR     64  50  59 SW7       29.86R
AUSTIN         CLEAR     57  50  77 S7        29.85F
PRESTON        CLEAR     58  49  73 S13       29.87F
$$
ABBREVIATIONS USED IN REMARKS
   TC - TEMPERATURES IN CELSIUS
  WCI - WIND CHILL INDEX
   HX - HEAT INDEX
  VSB - VISIBILITY
$$


USA.gov is the U.S. government's official web portal to all federal, state and local government web resources and services.